RH
23 24 25 27 28 29 30 30 27 21 17 13 10 7 4 2 1 1 2 1 2 1 2 2 2 2 2 2 3 4 5 6 7 8 10 13 17 18 15 12 8 6 6 6 6 7 8 10 14 16 16 16 18 41 64 66 66 71 73 72 75 78 80 86 86 87 87 83 74 66 74 84 85 85 89 89 88 89 84 80 78 69 63 63 70 70 56 48
16 17 18 20 22 24 27 29 31 29 25 20 15 12 8 4 2 2 1 1 2 1 2 2 1 2 2 2 2 3 4 4 6 6 8 11 15 17 17 15 11 7 6 6 6 7 8 9 13 15 15 16 17 29 51 63 66 69 69 69 73 77 80 86 88 89 88 87 81 70 69 78 82 81 84 86 83 83 81 80 76 61 56 55 59 63 55 45
13 13 13 14 16 18 21 24 27 30 30 27 23 18 14 9 5 3 2 1 1 2 1 2 2 1 2 2 2 2 3 4 5 5 6 8 12 15 17 17 14 10 7 7 7 7 8 8 11 14 15 15 18 24 40 56 64 66 66 68 73 74 76 81 87 90 88 88 85 78 71 69 72 74 79 85 83 81 81 82 74 58 52 51 52 59 52 42
12 12 12 12 13 14 16 18 21 25 28 30 28 25 21 15 9 5 3 2 1 2 1 1 1 2 2 2 2 2 2 3 4 4 5 7 9 14 17 19 17 13 9 7 7 9 9 8 9 12 14 14 17 21 33 48 59 64 66 70 71 70 71 72 77 82 86 89 89 88 81 69 66 68 72 79 80 77 76 79 75 60 53 49 51 56 49 38
10 10 11 12 13 14 15 16 17 19 22 26 29 28 26 22 16 10 6 3 2 1 1 2 1 1 2 1 2 2 2 3 4 4 4 6 7 12 16 19 19 14 10 7 7 8 8 8 8 10 13 14 15 19 29 44 57 64 67 67 66 65 65 62 65 71 77 84 90 91 85 77 70 66 69 73 78 78 75 75 72 63 57 52 50 52 47 37
7 7 8 9 10 12 14 17 18 18 18 20 24 27 27 26 23 17 10 6 4 2 1 1 1 1 2 2 2 2 2 4 7 6 4 5 6 9 14 17 20 16 10 7 7 7 7 8 8 9 12 13 15 17 26 43 58 65 65 63 63 61 56 55 59 60 62 73 87 88 84 81 69 66 71 74 79 78 75 75 71 64 63 60 54 50 44 36
5 6 6 6 7 8 9 12 16 18 20 20 21 23 24 26 27 24 17 11 7 4 2 1 1 2 1 1 1 2 1 4 10 10 5 5 5 7 11 16 19 18 12 7 6 6 6 7 7 9 10 13 14 16 26 42 57 64 64 63 59 54 49 51 52 48 49 63 85 88 83 79 67 69 75 73 77 75 74 77 72 67 67 66 60 52 43 36
5 5 5 5 5 5 6 7 9 12 17 20 23 23 22 23 25 26 23 17 11 7 3 1 2 1 1 2 1 2 2 2 8 12 10 5 4 6 9 14 18 20 16 9 7 6 7 6 8 8 9 13 13 17 29 42 55 61 64 62 54 47 43 44 44 41 40 51 77 88 84 79 70 74 76 72 75 75 77 77 73 72 71 70 65 56 45 37
6 6 6 6 5 5 5 5 5 6 8 13 20 24 23 21 22 25 26 22 17 12 5 2 1 1 1 1 1 2 2 1 4 12 15 8 4 5 7 11 16 21 20 13 8 7 7 7 7 8 9 12 12 19 31 42 55 61 62 58 48 42 38 37 37 37 38 47 72 86 84 77 71 73 75 75 76 75 76 77 77 76 74 74 69 60 48 38
5 6 5 6 6 6 6 5 5 4 4 5 10 17 22 22 20 22 25 24 21 17 10 3 1 2 1 1 2 1 2 2 2 9 17 13 5 4 6 9 15 22 22 16 10 6 8 8 9 9 8 10 12 22 32 42 57 62 60 52 40 38 35 32 31 35 48 59 72 83 83 75 70 71 72 74 74 72 72 76 82 80 76 75 70 64 52 41
5 5 5 5 5 5 6 6 6 5 5 4 4 7 13 19 21 22 24 24 23 20 15 7 2 2 2 2 1 2 4 4 2 6 17 19 10 4 5 7 14 24 25 20 13 8 8 9 10 9 9 10 14 28 35 39 55 63 59 46 37 37 33 28 27 36 56 68 72 81 84 77 71 67 69 74 71 69 71 77 85 81 77 74 68 65 57 45
6 6 5 5 5 4 4 5 6 6 5 5 4 4 5 11 19 25 25 24 22 21 18 11 4 2 2 2 1 3 6 6 4 6 15 22 17 8 6 6 12 23 29 25 15 9 8 10 10 10 10 11 19 39 43 39 52 62 56 45 39 37 32 25 26 38 56 68 72 78 81 74 70 66 67 73 69 67 73 79 84 80 74 70 64 62 60 52
6 6 6 6 5 5 4 4 5 5 6 5 5 5 3 4 12 22 26 24 22 20 19 14 6 2 2 3 2 2 6 7 6 8 16 24 23 16 9 6 9 20 30 29 19 11 9 10 10 10 11 14 27 47 48 42 53 62 56 48 41 36 30 23 26 40 55 67 71 76 77 68 67 68 65 69 67 65 70 76 80 77 71 66 62 60 59 58
7 7 7 7 6 5 4 4 4 4 4 5 6 6 5 3 6 15 23 24 22 20 18 13 7 3 2 3 2 2 4 8 7 10 20 26 26 22 15 9 7 15 26 29 21 13 10 11 11 11 12 18 32 45 49 48 55 62 59 50 43 36 30 24 29 42 53 65 70 74 77 67 66 69 63 64 65 63 67 70 72 73 71 66 62 59 57 58
7 8 8 7 7 6 5 5 5 4 3 4 6 6 6 4 3 10 19 22 21 19 16 12 7 3 2 3 3 2 2 10 14 14 19 24 26 24 20 14 8 11 23 28 22 13 11 11 11 11 13 21 32 44 55 56 57 62 58 48 45 38 29 25 29 40 52 63 67 72 75 66 62 66 63 63 63 63 67 70 69 68 72 71 66 60 57 58
8 9 9 8 8 7 6 8 7 5 4 4 5 6 6 5 3 6 13 18 19 18 15 10 6 3 3 3 3 3 4 16 24 23 21 20 22 22 22 18 11 10 19 29 25 14 11 11 12 12 14 24 34 46 57 59 58 62 56 45 44 38 29 27 29 35 50 62 65 68 71 63 57 60 62 62 62 62 64 70 72 70 71 73 71 64 59 58
9 10 10 10 10 9 10 14 12 7 4 5 6 7 7 6 4 4 9 14 16 15 12 8 5 3 4 5 5 4 7 17 25 27 25 20 17 19 20 19 14 11 15 27 28 17 11 11 14 12 14 28 41 50 58 59 55 56 55 45 40 38 31 32 35 33 44 59 65 67 67 62 59 57 59 62 64 64 63 64 71 72 71 73 74 69 62 59
8 10 11 11 11 11 14 18 15 10 7 6 6 7 7 5 4 4 7 11 12 12 9 6 4 4 7 10 9 7 9 16 20 22 24 20 15 16 19 19 17 13 13 24 29 20 12 12 17 17 22 38 50 54 57 57 53 51 53 44 34 34 31 33 40 38 41 53 65 72 66 60 62 58 56 60 63 66 67 66 67 70 70 69 70 70 65 60
7 9 11 12 13 14 18 20 18 14 9 6 7 7 6 5 4 4 5 7 10 10 10 9 5 5 12 14 13 14 15 16 17 17 19 19 15 15 19 20 19 17 14 21 30 24 14 14 23 26 29 38 46 54 57 54 53 50 49 44 33 28 28 30 35 37 41 50 61 65 54 48 57 57 53 56 60 64 67 68 68 68 69 67 66 68 68 63
7 8 12 15 16 18 20 21 20 15 9 7 8 7 7 6 6 8 8 7 9 10 11 12 7 7 17 20 20 21 18 17 19 18 19 20 19 18 20 20 21 23 19 20 28 26 16 15 21 23 24 32 42 55 59 52 50 48 47 44 35 27 26 27 28 28 33 40 44 43 33 30 40 44 44 48 53 55 57 62 66 65 64 64 64 64 67 66
6 9 15 19 21 21 21 22 20 13 8 7 7 8 10 10 10 13 12 11 12 10 11 13 8 10 22 27 27 24 21 20 20 20 22 26 28 28 27 23 22 26 25 24 29 28 20 16 15 16 20 33 49 59 61 54 47 44 43 42 37 30 26 24 25 24 25 28 28 27 23 20 23 27 29 33 37 38 40 48 57 62 63 62 62 61 63 68
7 12 18 22 22 19 21 22 18 11 8 7 7 11 17 16 15 15 11 15 18 13 11 11 9 17 29 33 30 24 22 22 20 20 24 29 33 35 32 28 26 27 26 28 31 28 23 17 15 18 21 36 57 63 60 57 50 44 42 40 37 33 27 24 24 23 22 24 23 22 21 18 18 19 19 20 21 22 26 33 42 53 61 63 62 61 60 64
12 17 20 21 19 19 23 22 14 10 8 8 11 19 25 21 19 18 14 16 19 16 15 11 15 31 38 37 32 25 23 23 21 20 22 28 35 34 32 35 35 31 29 32 33 30 24 18 18 21 26 43 64 65 59 58 54 49 44 40 39 36 29 25 24 23 22 22 21 20 19 17 16 17 15 16 17 18 20 24 31 40 51 61 68 69 63 60
17 19 19 18 18 21 24 19 12 9 7 12 21 27 29 26 23 21 17 18 17 18 18 14 25 41 39 36 34 27 24 23 21 22 22 27 34 33 32 38 42 39 35 34 33 29 25 21 20 25 35 53 64 62 58 58 54 52 47 41 38 35 31 27 24 23 22 21 20 19 19 20 19 19 17 16 15 17 18 18 21 26 35 51 66 72 70 65
20 21 22 20 20 23 20 14 11 9 10 18 25 26 28 29 26 23 24 26 23 23 21 18 32 41 34 34 35 27 24 23 21 22 22 25 29 31 32 38 44 44 41 38 36 34 34 33 30 32 46 60 62 59 58 56 53 52 48 41 37 33 32 29 24 25 23 22 25 25 25 25 22 22 24 21 16 15 17 17 18 20 25 35 49 62 68 68
24 24 25 24 24 23 16 12 9 8 14 20 20 20 24 27 26 28 33 33 29 26 23 25 36 39 31 31 31 24 21 22 21 21 21 23 25 27 30 37 42 45 43 42 43 42 44 48 45 45 54 62 61 58 57 56 54 51 46 41 37 33 32 29 26 26 24 24 29 27 27 29 23 24 29 26 19 16 16 15 16 16 18 22 31 49 62 64
26 26 28 28 27 24 17 14 10 9 14 18 17 18 24 28 30 35 39 37 31 26 26 30 33 34 29 26 26 22 19 20 20 20 21 22 24 25 27 33 38 43 45 44 45 43 43 51 55 56 61 65 63 57 54 55 54 49 41 36 36 34 31 30 27 27 26 25 24 21 25 31 35 38 35 31 35 43 45 42 36 30 26 24 24 35 53 62
27 29 31 31 29 24 19 17 15 12 11 12 14 19 27 32 36 41 43 39 31 26 30 33 30 30 27 23 21 19 18 19 20 21 21 22 25 25 26 31 34 39 44 43 44 43 39 45 54 56 59 62 59 51 49 53 54 47 38 35 35 31 30 32 30 29 27 25 24 22 24 32 46 50 39 46 72 84 80 70 56 46 43 41 37 36 47 60
30 32 32 31 29 25 21 20 17 13 11 13 20 27 32 37 42 45 44 37 28 25 28 28 26 28 25 20 19 18 17 20 20 21 23 23 25 26 27 31 35 41 45 42 43 43 36 37 45 50 52 50 46 42 43 48 50 45 39 37 33 31 32 32 31 30 27 26 25 22 22 28 46 57 48 56 78 80 73 67 58 53 49 46 49 50 53 62
33 33 33 31 30 27 25 21 16 13 17 27 35 39 41 43 45 44 40 35 30 26 24 23 23 24 22 19 19 18 19 20 22 23 24 24 25 26 27 32 38 41 44 44 41 40 35 32 36 41 44 42 37 35 36 42 46 43 40 37 34 34 33 30 30 30 26 27 22 19 23 25 43 74 80 75 73 63 55 53 51 52 48 40 41 47 54 62
35 35 34 32 30 27 26 22 16 17 29 39 43 43 43 40 39 41 39 34 30 27 24 22 21 20 20 20 18 19 21 22 24 24 24 23 22 24 25 30 35 32 33 40 41 37 33 29 27 28 34 35 32 31 33 36 41 42 38 35 35 36 34 31 31 29 27 27 21 18 24 31 53 90 100 86 75 62 48 40 38 42 43 36 31 35 42 50
38 38 36 33 31 28 26 22 19 27 38 42 42 43 41 34 34 39 38 32 29 28 26 22 20 19 20 19 19 21 23 24 25 23 23 22 21 21 21 25 29 25 24 31 37 36 29 24 22 22 25 28 28 28 30 32 35 37 35 33 34 34 33 34 31 29 28 23 20 20 27 48 78 99 99 86 75 63 50 40 36 38 39 37 32 31 33 38
41 42 40 37 36 35 32 27 27 36 41 39 39 38 34 32 35 38 35 32 30 28 26 23 20 20 19 18 21 23 23 24 24 22 22 20 19 20 20 21 25 27 25 24 29 30 25 22 22 20 21 24 24 24 25 29 31 33 34 34 33 31 33 35 31 30 28 21 24 26 32 61 89 93 92 88 79 70 59 45 35 33 35 37 35 32 33 37
44 45 44 42 41 41 41 38 37 39 36 34 35 30 28 34 38 35 33 32 30 27 25 23 22 22 20 20 23 23 24 25 24 23 22 20 20 21 20 20 23 27 28 25 25 27 24 22 22 20 20 21 21 21 23 26 28 29 30 32 32 29 29 32 30 27 26 23 24 23 32 63 86 91 92 88 81 77 69 55 39 29 29 33 35 34 33 35
45 45 46 46 43 42 43 43 42 40 35 34 32 27 30 38 38 35 33 30 28 27 25 23 22 22 22 22 23 22 22 26 26 24 23 23 25 25 24 22 22 24 27 27 26 26 24 23 21 20 21 20 20 21 21 22 24 25 25 27 31 28 24 27 26 24 24 22 22 30 51 72 79 86 91 85 81 76 69 63 50 34 26 27 31 33 33 34
46 44 45 46 47 46 44 43 42 40 38 37 33 30 34 38 37 35 34 30 27 27 26 25 24 24 26 26 25 22 21 24 27 27 26 28 29 29 28 26 24 24 25 27 27 26 24 22 22 21 21 21 20 20 20 21 23 25 25 27 28 26 25 25 23 24 23 20 27 45 68 77 73 77 84 82 77 70 63 60 53 43 31 23 25 29 31 34
48 46 44 44 46 48 46 44 43 40 39 38 34 34 37 38 36 35 34 31 28 27 26 25 25 26 29 29 28 26 24 25 28 28 29 31 31 31 29 27 26 25 25 26 26 26 24 22 22 23 23 23 21 20 20 21 22 25 27 28 25 25 27 23 24 28 22 22 39 56 62 65 67 71 79 79 69 62 58 53 51 51 40 26 21 23 26 29
45 46 44 41 44 47 43 41 43 42 40 38 35 36 38 37 35 34 34 32 30 27 26 25 26 27 28 29 29 29 27 27 28 28 30 33 33 33 31 28 28 26 25 25 25 25 23 21 22 22 23 25 23 22 22 21 22 24 26 26 24 26 27 23 25 29 23 26 49 63 58 59 72 81 86 83 71 62 59 51 49 50 44 34 25 20 20 23
40 44 41 39 44 44 36 34 40 42 39 36 36 37 39 37 35 33 33 32 30 28 26 24 25 27 27 27 29 29 28 28 29 29 31 34 35 35 32 29 28 26 26 25 24 25 23 21 21 21 22 24 23 24 25 25 24 23 25 26 25 26 25 24 25 24 25 33 48 57 53 59 83 99 97 89 81 74 65 54 47 41 37 34 30 25 22 19
34 38 36 37 42 41 35 33 37 39 38 39 40 41 40 38 36 34 32 32 30 28 27 26 24 26 27 27 29 29 28 31 32 30 31 34 35 34 31 30 28 27 26 25 24 24 22 21 22 21 20 22 24 26 26 26 26 25 26 26 25 25 23 24 25 22 26 36 44 48 49 62 90 105 97 88 87 86 76 62 53 43 36 32 29 27 25 21
28 34 34 34 38 39 36 32 31 34 38 42 44 43 43 40 37 35 34 33 31 29 28 28 26 26 27 28 29 28 28 32 33 30 32 35 35 34 31 29 28 27 26 25 24 23 22 21 21 20 22 25 28 29 28 27 26 26 26 26 25 25 24 24 26 26 28 34 42 43 44 65 93 103 96 87 87 93 86 74 64 53 44 37 30 27 25 22
24 30 28 27 32 37 33 28 29 34 37 39 39 38 41 43 39 37 36 35 34 32 31 30 29 29 29 29 30 29 30 33 33 32 34 37 35 33 31 28 27 26 25 24 23 22 21 21 21 23 27 29 29 29 29 29 28 26 26 26 25 25 25 26 28 31 31 32 41 43 45 70 97 99 91 86 88 95 91 81 74 65 56 50 42 35 31 26
18 22 23 23 27 32 31 25 27 31 32 36 37 35 39 44 42 38 37 36 35 35 34 33 32 32 32 33 33 31 31 34 35 34 36 36 35 33 31 29 28 26 25 23 22 22 21 21 24 29 30 29 29 29 29 29 30 29 27 26 26 26 26 26 27 30 33 36 42 42 45 69 95 97 88 85 91 96 91 85 82 75 67 62 56 48 41 37
16 18 21 21 21 26 27 21 21 26 29 37 40 36 38 44 44 41 38 36 35 36 36 35 36 36 35 36 36 33 32 35 38 37 36 36 34 33 32 31 29 28 26 24 22 22 21 20 26 33 33 30 29 29 28 27 28 30 29 28 28 29 29 28 28 28 33 40 42 41 45 64 84 91 84 80 85 92 90 85 83 81 76 71 65 59 52 47
15 17 18 17 15 18 18 14 17 21 25 35 38 33 35 41 44 44 41 38 36 37 37 38 39 38 37 38 38 35 33 35 37 37 36 35 35 35 34 32 30 29 27 26 24 22 20 19 21 26 29 30 30 30 30 28 26 27 29 30 31 33 32 32 32 32 34 40 42 43 51 67 81 82 73 67 73 83 86 83 80 79 78 77 74 71 69 64
14 15 16 16 13 13 12 12 16 18 21 30 32 28 29 36 42 45 44 42 40 39 39 40 41 40 40 40 39 37 36 36 37 37 37 36 36 36 35 32 31 30 28 27 25 23 21 19 18 18 20 23 26 29 29 28 26 25 26 27 29 32 33 32 34 34 35 39 42 43 49 64 77 72 59 54 61 72 80 81 81 79 76 81 83 82 87 86
14 14 14 16 15 14 14 14 15 16 20 25 26 24 25 31 38 43 43 43 43 42 41 41 43 43 43 43 40 39 39 39 39 39 38 38 37 36 35 33 31 30 29 27 26 25 23 21 20 18 15 15 20 26 29 29 29 26 24 24 22 24 28 31 34 35 35 39 42 40 41 53 62 57 46 44 47 55 65 69 76 78 74 78 84 85 89 92
14 13 13 15 15 14 15 14 14 15 18 20 21 23 25 28 34 37 38 40 43 44 43 44 44 44 44 44 42 42 43 42 41 42 41 40 38 36 34 32 30 29 28 26 25 24 22 21 21 19 14 12 15 21 25 26 25 23 21 21 18 17 20 24 30 33 35 39 39 36 34 39 45 43 38 38 39 45 49 49 61 77 75 73 79 81 83 87
14 14 14 14 13 13 13 15 16 18 19 19 20 22 25 27 29 30 32 37 41 43 44 45 45 44 43 42 42 44 46 45 44 44 41 39 37 35 33 31 30 29 27 23 22 22 20 20 19 17 14 12 12 15 16 16 17 17 17 16 15 14 14 16 22 26 30 35 36 34 32 32 34 35 35 36 37 40 40 39 56 79 80 71 69 70 74 81
13 15 15 14 14 13 14 16 19 21 20 20 20 22 24 26 26 26 28 32 37 40 41 42 44 45 43 42 43 45 45 45 45 44 40 37 35 32 30 29 29 28 25 23 22 23 23 23 22 19 16 15 13 13 14 13 12 12 11 12 12 12 12 13 14 18 23 27 28 29 28 29 33 35 34 35 35 35 36 43 61 79 79 70 64 61 64 72
12 14 16 17 16 16 15 16 21 24 22 21 22 22 23 25 26 28 29 31 36 40 42 44 46 45 44 44 44 42 41 40 39 37 33 31 30 28 28 30 30 28 26 25 25 25 25 29 30 26 26 26 20 18 21 19 15 16 14 11 10 10 13 15 17 21 21 19 21 28 28 28 33 36 33 32 32 31 32 41 60 76 75 67 61 58 57 59
12 14 17 20 19 18 17 16 21 25 23 21 24 25 26 26 28 32 33 34 39 43 44 48 50 46 44 44 41 40 40 36 32 30 29 29 32 34 35 35 32 30 29 28 27 26 25 30 33 30 35 39 29 24 27 23 22 31 28 17 13 16 20 26 33 37 32 24 29 38 34 28 30 33 34 33 32 32 32 37 52 67 71 65 58 54 53 51
Wind_Speed
18 17 16 16 15 15 14 13 13 12 12 12 11 10 9 9 9 10 10 10 11 12 12 13 14 14 14 14 15 15 14 14 14 13 13 14 14 13 12 12 16 19 20 20 19 19 20 20 19 17 15 14 13 11 11 9 7 7 7 8 8 9 11 11 10 9 6 4 4 8 8 7 8 8 9 9 10 12 13 11 9 11 13 16 17 19 24 24
19 19 18 17 17 16 15 15 15 14 13 13 12 11 10 10 9 10 10 11 10 11 12 12 13 13 14 14 15 16 15 15 14 13 15 15 15 14 12 12 14 16 19 18 15 15 16 18 18 18 17 15 14 12 11 9 8 7 6 6 7 9 10 10 9 9 7 4 4 8 10 9 9 10 9 8 10 13 13 9 9 14 17 19 21 22 24 24
18 19 19 18 18 18 17 16 16 16 15 14 13 13 12 11 11 10 11 11 10 10 11 12 13 13 14 14 14 15 16 16 14 14 16 16 16 16 13 13 13 13 16 17 14 14 15 17 18 19 18 16 15 14 12 10 8 7 7 7 7 8 9 10 9 10 9 4 5 7 10 10 10 11 9 7 8 10 10 8 9 15 19 20 21 23 24 24
18 18 18 18 18 17 18 17 17 17 16 16 15 15 13 12 12 11 11 11 11 10 11 12 13 13 14 14 14 14 15 16 15 16 16 16 17 17 15 14 14 13 16 18 18 18 19 20 21 20 19 18 17 15 13 10 8 8 8 8 7 7 8 8 9 9 9 6 3 6 9 11 10 10 9 8 5 4 6 7 8 13 16 18 20 22 23 23
17 17 17 18 18 17 17 17 18 18 17 17 17 16 16 14 13 13 12 12 12 10 11 11 12 13 14 14 13 13 13 14 15 17 16 17 18 18 17 16 15 15 16 19 21 22 22 22 23 23 22 21 19 17 13 11 10 10 9 8 6 5 6 5 6 7 7 7 3 3 6 10 11 10 9 7 4 3 4 8 11 13 13 14 18 21 23 23
16 16 16 16 17 17 17 17 17 18 18 17 17 17 17 16 15 14 14 14 13 11 11 11 12 12 13 14 13 13 12 12 14 17 17 17 18 19 19 18 17 16 17 20 22 23 22 22 23 24 23 22 20 17 13 12 12 11 10 6 4 4 4 3 4 6 6 7 4 2 5 9 12 10 9 8 6 6 7 9 14 16 13 12 15 19 22 22
16 16 16 16 16 16 16 17 17 17 18 18 17 17 17 17 16 15 15 15 15 13 12 12 12 12 13 14 13 13 12 13 14 15 17 17 18 20 20 20 18 17 17 18 21 22 21 21 22 22 23 22 21 18 15 14 14 12 9 4 3 3 3 2 2 5 6 5 3 3 5 8 11 10 9 9 7 9 11 11 14 17 16 14 14 18 21 22
18 18 18 17 17 16 16 16 17 17 17 17 18 18 17 17 17 16 16 16 16 15 13 12 12 12 13 13 14 12 12 14 14 14 17 17 18 20 21 20 19 17 16 16 18 20 19 19 20 22 23 23 22 18 16 16 16 13 8 5 5 3 2 1 2 4 5 4 2 3 6 9 11 10 9 8 8 9 11 11 13 15 15 14 14 18 21 22
19 19 19 19 19 18 17 17 17 17 17 16 16 17 17 17 17 17 16 16 17 16 15 14 13 12 12 13 13 12 12 14 15 14 16 18 19 21 21 20 19 18 17 16 17 19 19 17 18 20 23 24 22 18 18 18 17 14 9 7 6 3 2 0 3 3 3 2 1 3 7 11 12 10 10 9 9 9 11 11 11 12 13 13 15 18 21 22
20 19 19 19 19 19 19 18 17 17 18 17 16 16 17 17 17 17 16 17 17 17 16 15 14 13 13 13 13 13 13 14 15 15 16 18 19 21 21 21 19 18 17 17 17 18 19 17 16 19 22 23 22 20 20 19 17 15 11 8 6 4 2 1 2 1 1 2 3 4 7 11 12 10 11 11 10 9 10 10 9 11 12 13 15 18 21 22
21 21 20 19 19 19 19 19 18 18 18 18 17 16 15 15 16 16 17 17 17 18 17 16 15 14 13 13 13 13 14 15 15 16 17 18 19 21 22 21 20 19 18 17 16 17 18 17 17 19 22 23 22 22 22 20 18 15 13 10 6 3 2 0 1 1 4 4 5 6 8 11 11 9 11 11 10 10 9 9 9 10 12 14 16 19 22 23
23 22 21 21 20 20 19 19 19 20 19 18 17 16 15 14 14 16 16 17 17 17 17 16 15 15 14 12 13 14 15 15 15 16 18 18 19 20 22 23 22 21 20 18 16 16 18 19 19 20 22 24 23 20 20 21 18 15 14 10 7 4 2 2 1 3 6 6 5 6 6 9 8 7 11 12 11 10 9 9 9 10 13 15 17 20 23 24
25 24 24 23 22 21 20 19 20 21 20 18 17 16 15 13 13 15 15 16 17 17 16 16 15 15 14 13 14 16 16 15 15 15 17 17 18 19 21 23 25 25 23 20 18 18 19 20 20 21 22 23 24 19 17 21 19 15 14 11 8 5 3 2 2 4 7 6 5 5 3 3 5 8 10 12 11 11 9 10 10 11 13 16 17 20 24 25
26 26 26 25 24 24 22 21 20 21 20 18 17 16 15 14 13 13 14 15 16 16 16 16 15 15 15 14 15 16 15 15 14 15 16 16 17 18 19 22 25 26 25 24 22 21 21 21 20 21 22 22 24 21 14 18 20 16 14 12 10 6 4 3 3 5 8 7 6 6 3 2 4 8 9 10 11 10 9 9 10 11 13 15 18 21 23 24
26 27 27 26 26 25 24 22 21 21 19 17 17 16 15 13 13 13 14 14 15 16 16 15 15 15 15 15 15 15 15 14 14 16 17 17 16 16 17 20 23 25 25 25 24 24 24 23 21 21 23 21 23 22 15 15 19 18 13 11 12 8 5 4 3 6 9 9 8 7 5 1 3 6 6 8 10 10 10 9 10 11 12 14 18 21 22 22
26 26 27 27 26 25 23 22 22 21 19 17 17 16 15 13 13 13 13 13 13 14 15 14 14 15 15 15 16 16 15 15 16 18 18 18 18 17 18 19 21 24 26 26 25 25 26 25 23 22 23 22 22 23 17 13 15 19 14 9 11 11 6 4 4 6 9 10 9 7 5 2 2 3 4 5 7 8 9 9 10 10 11 13 16 20 21 22
24 25 26 26 26 25 23 22 22 21 18 17 16 15 14 13 12 13 13 13 12 13 14 14 14 14 14 15 16 17 18 19 20 19 18 18 19 19 19 19 21 23 26 26 25 25 26 26 24 22 25 24 22 23 19 13 12 16 17 11 10 12 8 4 4 6 9 11 10 9 7 4 1 0 1 3 4 6 7 8 9 10 11 13 15 19 22 22
24 24 25 26 26 25 23 23 24 22 18 16 14 13 12 11 11 12 12 12 12 12 13 13 14 14 13 15 17 18 20 21 20 20 19 19 20 21 21 20 21 23 26 27 26 27 27 27 25 24 27 26 24 25 20 14 14 15 16 13 9 10 10 5 4 6 8 10 11 12 10 7 5 4 3 3 4 6 7 7 9 10 11 12 14 18 22 22
24 24 25 25 25 24 23 23 24 22 18 14 12 11 10 10 9 10 11 12 11 11 11 12 15 15 14 16 19 20 21 20 18 19 20 21 21 22 23 22 22 22 25 28 28 28 29 28 27 27 31 31 28 29 22 13 14 14 15 15 10 8 10 8 5 5 7 8 11 12 8 5 7 8 7 7 7 8 8 7 9 10 11 13 14 16 20 23
24 23 23 23 23 22 22 22 23 21 16 12 10 8 7 7 7 7 9 10 10 11 11 11 15 17 16 19 21 21 20 19 18 18 19 20 21 22 23 24 23 22 23 27 29 29 29 30 31 32 34 34 29 27 24 14 12 14 14 15 13 9 9 9 6 5 6 7 7 8 6 4 6 8 9 10 12 12 11 9 9 9 9 12 14 14 17 21
23 22 21 21 21 21 20 19 20 18 13 10 9 7 5 5 5 6 7 8 9 10 10 11 15 17 19 22 23 22 21 19 18 17 18 20 21 21 23 24 23 23 23 26 27 28 30 31 33 33 32 31 26 22 23 18 13 14 14 14 14 12 10 9 8 6 6 6 4 4 6 4 4 5 7 10 12 12 11 11 10 8 7 9 13 14 14 18
21 19 19 19 20 19 17 16 17 13 10 8 7 6 4 4 4 5 6 7 8 9 10 12 14 17 20 23 24 23 21 19 18 17 18 21 22 21 22 23 23 23 24 25 28 29 31 33 33 32 29 27 24 21 21 21 17 14 14 14 14 13 11 8 8 7 6 6 5 5 7 5 4 6 9 10 10 9 9 10 10 11 11 10 10 14 15 16
19 19 19 19 18 16 14 14 13 9 7 6 5 5 4 3 2 2 3 4 7 7 9 12 15 19 21 23 24 22 20 19 18 18 18 20 22 21 19 21 21 22 25 27 29 31 30 32 34 31 28 25 24 22 21 22 21 17 15 14 13 14 12 8 7 8 6 4 5 6 8 9 8 10 12 11 9 8 8 8 9 12 13 12 11 13 15 15
21 21 20 19 17 14 13 13 9 6 5 5 4 4 4 3 2 2 2 2 3 3 7 12 18 22 20 21 23 20 19 18 16 15 16 17 20 20 17 18 20 21 25 26 28 30 28 28 31 30 27 25 23 21 22 21 20 21 19 16 16 16 13 8 7 8 6 5 6 6 9 10 8 9 11 11 10 9 9 9 10 11 12 13 13 12 14 15
22 21 19 18 15 13 12 11 7 4 4 5 5 4 5 3 2 2 2 3 2 2 7 14 20 22 18 19 22 18 17 17 15 13 14 15 16 18 17 16 18 21 23 24 23 26 24 20 25 29 27 26 23 20 22 20 17 20 22 20 18 15 13 11 8 6 6 5 4 3 5 4 3 5 6 6 9 10 10 11 10 11 11 12 13 12 12 15
22 20 18 15 13 12 10 8 6 4 4 4 4 4 4 2 2 2 4 6 6 4 8 15 20 20 16 17 19 17 16 16 15 13 13 14 13 16 18 16 17 19 21 23 20 22 23 15 16 25 27 26 24 21 21 19 15 16 21 23 20 17 15 12 9 6 5 4 3 2 3 3 3 6 5 3 8 10 11 11 11 11 10 10 11 12 11 13
21 19 15 12 11 10 9 7 5 3 3 3 3 4 4 2 2 4 4 5 6 6 8 16 17 16 14 15 18 16 14 15 15 14 14 14 12 14 17 17 17 18 20 22 19 19 24 19 14 19 25 26 24 23 22 20 16 15 19 21 19 19 18 13 9 7 6 4 4 5 4 3 4 6 6 4 5 6 8 10 12 13 13 12 11 12 12 12
19 16 13 11 9 9 8 7 5 3 2 2 2 2 3 3 5 5 2 2 4 6 10 15 13 13 13 15 15 12 12 16 16 15 14 13 12 13 15 15 15 16 19 22 17 14 22 24 19 18 20 23 25 24 23 21 18 18 18 15 14 17 18 15 11 9 7 5 6 7 6 4 2 7 7 3 1 3 5 9 12 14 16 16 16 15 14 14
16 14 12 10 8 7 7 6 5 3 3 3 3 4 4 5 6 4 2 3 5 6 9 10 10 13 14 15 13 11 16 18 15 16 16 13 14 13 13 12 13 14 15 18 15 9 14 21 23 20 18 19 19 19 21 21 19 18 16 12 10 11 13 14 12 9 6 4 6 7 7 5 2 8 7 3 2 3 5 8 10 12 15 17 19 19 18 18
16 15 13 10 9 7 6 6 5 5 5 5 5 5 5 5 4 2 2 4 6 6 7 7 10 14 14 15 12 12 18 16 15 17 16 14 14 12 11 13 13 12 11 14 14 9 9 14 18 21 23 22 17 15 18 20 19 17 15 13 11 9 10 12 11 8 3 4 8 6 6 7 1 8 9 7 6 8 8 9 10 10 12 15 17 19 21 21
17 16 14 12 10 8 7 6 5 6 7 7 8 8 7 7 5 4 3 5 7 5 6 8 11 13 14 15 13 13 15 15 18 19 14 12 12 11 12 13 14 12 10 13 15 12 11 13 13 15 20 21 19 17 17 17 18 16 14 14 12 8 9 9 8 7 4 4 6 7 8 8 3 6 9 8 8 10 11 10 9 9 9 11 14 17 19 20
17 16 15 13 12 10 9 8 6 8 9 8 8 8 8 8 9 8 4 3 5 4 7 9 12 12 14 16 14 14 16 18 19 16 12 11 10 11 13 14 17 14 10 13 16 13 11 11 11 10 13 17 17 17 17 17 19 18 16 15 11 7 7 7 5 5 5 3 4 8 10 7 7 7 8 8 7 9 10 9 8 8 7 8 10 12 14 17
17 17 16 15 13 12 12 9 7 8 6 6 7 7 9 9 7 9 7 4 5 6 9 11 12 10 12 15 16 16 17 17 16 12 11 9 7 11 12 13 18 15 9 13 15 13 10 7 9 10 12 15 17 17 18 20 22 24 23 20 13 7 7 7 4 2 5 4 5 10 11 9 9 7 10 9 8 9 9 9 7 6 6 6 6 7 10 13
18 17 17 17 15 14 13 10 9 6 6 8 7 7 13 11 6 10 11 9 9 11 13 14 13 10 11 14 16 16 15 14 12 11 10 7 7 10 10 12 17 15 11 12 13 13 10 6 7 11 12 14 16 18 19 19 21 24 25 22 16 9 6 6 5 4 6 6 8 10 8 8 10 7 9 9 7 7 7 9 8 5 3 4 5 7 9 12
17 18 17 16 15 15 13 11 10 7 8 9 5 4 12 10 7 11 13 10 11 13 15 15 13 11 13 15 14 14 14 13 11 10 9 9 10 11 9 9 14 15 12 12 11 11 9 6 8 11 11 12 13 16 18 16 16 20 22 21 20 15 6 5 9 10 9 8 7 7 7 11 14 10 9 7 6 3 2 6 7 6 3 3 5 7 9 11
15 16 16 14 14 15 14 12 10 8 9 9 5 8 15 11 8 11 11 9 10 12 15 15 14 14 14 14 13 12 12 13 13 12 12 12 13 13 11 9 9 11 12 12 11 9 8 7 9 10 9 9 10 13 16 15 14 18 21 21 23 20 11 6 10 12 11 8 5 7 10 13 12 6 6 5 4 1 1 2 4 4 3 3 5 7 8 9
12 12 13 12 12 13 14 12 10 9 10 9 3 14 16 11 10 10 10 10 8 9 12 12 12 12 12 12 12 12 12 13 13 12 13 12 11 12 13 11 9 8 10 11 9 9 10 8 9 10 8 8 9 10 13 14 14 16 18 21 21 19 15 10 7 8 10 7 4 8 10 10 7 2 3 2 1 1 1 1 1 1 2 3 5 7 8 9
9 9 9 10 10 12 13 12 10 11 11 6 9 16 14 12 11 9 8 9 8 5 5 6 8 10 13 15 14 13 13 12 11 11 12 11 9 10 11 11 11 9 9 9 7 9 12 9 8 10 9 9 9 9 9 12 16 16 16 21 19 13 15 14 7 6 9 6 4 7 9 7 4 2 5 3 2 2 3 2 1 2 3 3 4 7 8 9
9 8 8 8 8 10 12 12 10 10 8 4 12 14 12 12 11 8 7 6 7 5 2 6 8 9 13 15 15 14 12 10 11 13 11 10 9 8 9 10 10 9 9 9 6 9 11 7 6 8 10 9 9 9 8 10 14 14 14 21 20 13 15 17 10 7 9 6 4 6 6 5 6 8 7 5 5 5 4 4 3 3 3 4 5 6 8 9
8 6 7 7 7 9 12 12 8 6 4 8 12 11 10 11 11 9 8 6 5 5 4 7 9 10 11 12 13 13 10 10 12 11 10 11 11 9 8 9 9 8 9 8 7 7 9 7 5 6 9 9 8 9 9 8 11 14 16 21 20 14 16 16 11 9 7 4 5 6 5 5 7 9 3 1 6 7 6 5 4 4 5 6 6 7 8 9
7 6 6 7 7 8 11 8 3 4 8 12 12 9 8 9 10 9 9 7 5 7 8 7 8 11 10 10 11 10 10 12 11 10 12 13 12 9 8 8 9 8 7 7 6 5 6 7 6 7 9 11 11 12 12 9 9 13 17 20 18 15 17 15 9 9 7 4 6 6 5 7 7 7 5 4 7 7 7 6 5 5 6 7 7 8 9 10
8 5 5 7 7 8 9 7 8 9 9 10 10 8 6 6 6 7 8 7 6 7 9 8 9 10 10 10 10 10 11 13 11 11 13 13 10 9 8 8 8 8 7 7 7 7 8 8 9 11 13 14 13 12 12 11 9 9 13 18 17 15 18 13 6 8 9 6 8 7 6 7 7 7 6 6 8 7 7 7 6 6 6 7 7 8 9 10
9 7 7 8 8 8 8 9 11 10 9 10 10 8 5 3 3 4 5 5 5 6 7 8 10 10 11 11 9 9 10 10 10 11 13 13 11 10 8 7 7 6 6 6 6 7 7 7 11 14 13 10 9 9 9 9 9 7 9 13 13 13 16 12 8 13 11 7 9 7 5 7 9 9 7 8 10 9 7 6 7 8 7 7 7 8 8 8
12 10 8 9 10 8 6 9 11 10 11 11 9 7 5 3 3 3 3 3 4 4 4 7 9 9 10 10 7 6 7 7 9 11 12 11 10 9 8 6 6 5 4 4 5 5 5 6 11 12 8 5 4 4 4 5 7 7 7 9 9 11 13 10 11 15 11 9 12 7 4 9 13 13 10 9 10 10 9 7 7 7 8 8 8 8 8 7
12 11 8 9 11 9 7 11 12 10 10 10 7 6 5 4 4 4 5 4 5 4 2 5 7 7 7 7 5 4 4 5 8 10 10 9 9 8 7 5 4 4 2 3 4 5 6 7 9 6 3 3 3 4 6 7 7 6 7 7 7 8 10 9 12 12 8 10 13 7 8 15 16 15 11 8 9 10 11 9 6 5 6 9 9 9 8 7
10 10 9 9 11 11 11 12 12 10 10 9 6 6 6 6 6 6 5 4 5 4 2 4 5 5 5 5 4 5 5 5 6 8 9 8 7 6 4 3 2 1 1 2 2 3 4 4 4 3 3 4 4 6 9 10 8 6 6 6 5 5 7 8 9 8 9 13 11 8 15 21 18 15 13 9 8 9 10 11 8 5 4 6 8 9 9 9
9 9 10 9 9 11 11 11 10 10 10 8 7 7 7 6 6 5 4 4 4 4 3 3 3 2 4 4 3 5 7 7 6 7 7 6 4 4 3 1 1 1 2 2 3 2 1 1 1 3 4 5 6 7 9 9 8 6 5 4 3 2 4 6 7 9 13 12 9 10 18 21 18 16 13 10 9 7 7 8 8 7 5 5 6 7 8 8
9 9 10 10 9 9 10 11 10 11 10 9 8 8 7 6 6 6 5 4 4 4 3 3 2 1 3 3 2 4 7 6 6 6 6 4 3 2 2 2 2 3 4 5 5 4 3 3 4 5 5 6 7 8 9 9 8 8 7 5 4 2 3 4 6 11 12 8 9 14 15 15 16 15 12 10 9 7 6 5 6 7 7 5 4 4 3 5
10 9 9 9 10 10 11 12 12 11 10 10 10 9 8 7 6 6 6 5 5 4 3 3 3 2 2 2 2 4 6 5 5 5 4 3 2 2 2 3 3 3 4 4 4 4 3 5 6 7 7 8 8 8 8 8 8 7 7 7 7 5 4 4 5 8 9 8 10 13 10 12 14 13 11 10 8 7 6 4 4 5 5 4 4 3 1 0
10 10 9 9 10 11 12 12 12 11 10 10 10 10 9 8 7 7 7 6 7 7 5 4 6 6 5 4 4 5 6 5 5 4 3 3 2 2 2 2 2 3 3 4 5 5 5 7 8 8 8 8 7 6 6 5 5 5 6 7 7 7 6 6 6 7 8 8 8 8 8 10 12 11 9 8 7 7 6 5 5 5 3 3 3 3 2 2
10 10 10 10 10 10 11 11 11 9 9 9 9 9 9 8 8 8 7 8 9 9 8 8 8 8 7 7 7 7 7 6 5 5 4 3 3 2 2 2 2 3 3 4 5 5 5 8 10 9 7 7 7 5 4 4 3 3 5 7 7 7 7 8 8 8 9 10 9 8 8 9 9 10 9 8 7 7 6 6 6 6 6 4 2 2 2 1
10 10 10 9 9 9 9 10 10 8 7 7 7 7 7 7 7 8 7 8 9 9 9 10 9 7 7 7 7 8 8 7 6 6 5 5 4 3 3 3 2 3 3 4 5 5 5 8 9 8 7 7 7 5 4 3 2 3 7 8 7 7 8 8 9 8 9 10 10 8 9 10 9 9 10 10 9 8 8 7 8 8 9 8 5 3 2 2
Wind_Direction
310 308 308 307 305 303 301 300 299 298 298 297 295 293 289 283 275 269 265 261 255 253 250 246 244 245 242 236 231 227 224 220 217 210 207 207 207 213 215 213 216 215 216 217 214 209 206 199 196 195 190 184 188 201 200 180 151 129 108 93 77 66 56 49 55 58 71 102 166 172 142 132 153 153 147 148 150 158 163 162 171 172 166 164 166 176 172 163
309 306 305 303 302 300 298 296 293 291 290 289 289 288 285 281 276 271 267 263 258 253 251 248 245 244 243 241 234 228 224 221 216 208 208 208 205 210 210 210 216 216 217 219 214 211 210 205 200 197 195 191 192 203 203 184 156 139 121 104 90 79 67 56 60 59 65 103 163 179 163 145 147 150 145 149 157 163 171 174 169 164 162 158 159 170 172 164
313 310 307 304 300 297 296 294 292 290 286 284 282 281 280 277 275 271 268 265 259 254 250 248 246 244 243 243 239 231 225 222 215 207 209 206 203 207 206 205 212 213 214 213 205 202 203 202 201 201 200 196 197 204 201 187 163 152 138 119 103 84 69 58 59 59 56 83 164 176 177 169 156 152 148 149 164 171 177 179 170 166 163 156 156 169 173 164
320 317 313 309 304 299 294 291 289 288 286 283 280 276 275 273 272 271 268 265 260 254 250 248 246 245 244 243 243 236 226 223 216 208 208 204 202 205 203 203 207 207 207 205 199 196 196 196 196 198 201 200 201 203 199 189 172 161 145 128 113 83 70 62 54 57 57 57 137 172 187 187 175 164 156 152 161 170 170 164 164 170 168 158 157 170 173 164
326 323 320 316 311 306 299 292 287 285 283 282 280 276 273 270 269 269 268 266 262 255 250 247 244 243 245 243 244 241 229 225 220 210 207 203 201 201 201 203 204 203 205 205 202 200 197 195 194 194 198 201 201 201 195 189 182 166 150 132 118 92 72 66 58 57 56 43 49 167 187 194 189 174 160 153 138 110 137 151 157 164 166 161 161 170 174 166
331 328 325 322 318 313 307 301 293 287 282 279 277 275 273 270 267 266 266 265 262 256 249 246 243 240 242 243 243 242 231 223 219 209 206 202 199 199 200 202 202 202 204 206 207 206 202 197 196 194 195 200 201 199 193 192 192 173 155 132 120 118 82 73 74 52 39 38 43 153 177 192 190 177 162 159 149 130 130 145 155 157 157 164 168 172 176 170
336 332 329 326 322 318 314 310 303 296 288 281 276 272 270 269 266 263 262 263 262 257 250 245 242 237 238 241 241 243 233 222 216 206 203 200 198 198 200 202 201 204 207 208 210 210 206 200 199 195 194 200 201 198 194 198 198 179 164 155 154 146 106 85 69 36 24 35 56 157 172 186 185 179 170 165 162 141 135 146 156 158 157 161 170 176 179 174
336 334 332 328 325 322 318 315 310 305 297 289 282 275 269 265 264 263 261 261 260 257 252 245 241 235 233 236 238 240 236 227 218 205 199 197 197 197 199 202 201 203 207 210 212 211 209 202 199 196 194 200 200 197 194 200 202 184 175 190 178 156 122 74 5 15 7 15 54 156 166 179 183 183 178 172 175 156 144 149 157 163 162 160 168 178 183 177
334 331 329 326 324 323 320 317 313 308 303 297 290 283 274 266 262 262 261 259 258 256 253 246 240 234 229 231 234 236 236 229 220 207 197 193 194 195 198 201 201 202 203 206 208 207 207 202 199 197 196 199 198 196 196 202 206 192 187 197 181 174 170 340 345 1 348 354 89 157 168 172 177 182 182 183 189 170 155 156 160 169 170 167 167 175 185 182
332 329 325 322 319 318 317 315 312 307 303 301 297 291 284 275 265 260 259 257 256 254 252 248 241 234 228 226 229 232 230 228 221 208 198 192 191 192 196 198 200 202 202 205 205 203 202 199 199 198 198 200 196 196 200 203 205 199 197 194 178 186 185 43 354 6 241 174 148 168 173 172 175 184 185 188 192 177 166 166 167 175 177 175 170 173 185 187
332 329 326 321 316 313 311 310 307 303 301 300 300 299 295 287 275 263 257 254 253 251 250 249 242 235 228 223 224 226 223 224 220 208 200 194 190 191 194 195 197 200 202 205 205 200 195 195 198 198 198 200 196 197 205 205 201 202 202 191 184 195 190 8 348 188 180 168 163 171 176 182 185 184 184 190 192 179 174 175 172 175 177 177 174 174 183 189
332 331 329 325 320 315 310 305 302 298 297 299 301 301 299 294 281 268 259 253 251 249 248 247 243 236 228 221 219 219 218 221 218 210 203 196 192 191 192 194 194 196 199 201 202 196 192 194 197 197 197 198 196 197 207 207 201 204 203 196 195 198 224 283 268 199 178 166 166 166 172 186 183 169 175 185 190 182 178 178 175 174 175 175 175 177 183 190
334 333 332 330 325 321 315 308 300 294 294 297 299 298 295 289 280 271 262 254 249 247 245 243 241 237 228 220 216 213 213 216 215 211 205 198 195 193 193 195 194 194 194 193 195 194 192 193 195 197 197 197 195 194 206 207 200 203 205 203 204 206 232 245 207 194 176 171 175 163 152 155 163 166 172 181 187 186 180 177 175 173 176 175 176 181 184 188
334 333 331 330 328 325 321 315 304 296 295 295 294 292 289 284 277 270 263 255 249 245 243 240 237 234 227 220 217 214 211 210 208 209 206 200 197 196 197 198 197 196 193 189 189 189 189 191 193 196 197 197 195 193 201 204 201 204 209 212 211 213 229 211 204 195 173 178 191 179 166 87 146 172 176 185 190 187 181 181 179 174 178 179 178 183 185 187
333 332 330 329 328 326 322 318 310 304 302 296 290 288 287 282 275 267 261 256 249 244 241 237 232 229 225 221 217 212 208 200 196 202 204 202 201 200 201 201 200 198 194 191 189 186 185 187 191 194 196 197 195 194 195 198 202 204 206 217 216 213 220 212 214 201 177 182 199 194 195 159 162 179 179 191 198 194 187 187 187 182 182 184 184 185 186 185
333 332 329 328 327 326 323 318 314 312 309 300 290 286 285 279 270 264 259 256 249 244 240 234 228 222 219 218 213 205 196 188 189 195 198 200 202 202 204 204 202 198 196 194 192 189 185 185 189 192 194 194 194 193 189 191 204 206 204 215 219 212 215 224 223 208 187 189 202 197 185 145 129 176 189 202 211 210 201 195 196 193 189 189 190 189 187 185
333 331 328 327 326 326 325 322 319 318 314 305 295 289 284 278 268 260 256 254 248 243 237 232 224 214 212 213 207 199 189 186 191 194 194 199 202 202 203 205 202 198 196 195 193 192 188 186 187 189 192 193 193 190 188 192 198 203 204 207 215 211 211 226 229 215 199 197 206 212 212 220 286 256 201 225 232 233 225 210 203 201 198 195 194 193 191 188
333 331 327 326 325 325 327 326 322 323 322 313 304 297 292 285 272 261 255 252 247 240 234 228 216 203 203 205 199 194 190 190 194 193 192 197 200 200 200 203 204 198 196 195 194 193 192 189 186 188 191 193 193 188 189 198 195 194 200 200 206 208 206 210 216 217 211 206 210 217 225 237 258 277 284 282 268 256 251 234 216 207 203 201 197 196 196 193
331 329 325 325 324 324 328 326 322 325 327 320 314 308 300 292 279 266 258 251 247 236 226 219 206 194 192 194 190 189 190 189 187 188 190 194 197 197 197 199 202 199 197 196 194 194 193 189 187 190 193 194 194 191 190 193 194 193 195 198 200 195 198 202 203 210 210 216 222 226 235 246 257 267 273 280 282 275 267 251 233 219 208 205 202 199 199 198
328 326 324 324 322 324 328 324 321 325 326 322 321 317 306 296 282 272 263 256 253 239 226 215 201 192 185 183 183 184 184 180 176 178 184 188 192 196 197 199 199 197 198 199 196 196 195 193 193 195 196 196 194 192 191 185 182 190 194 200 203 194 190 193 193 192 197 211 224 232 242 243 249 264 270 272 272 267 264 259 249 237 221 209 204 201 201 201
327 325 324 323 321 324 325 321 321 323 325 325 324 329 323 307 288 274 267 259 254 240 225 214 199 189 181 178 179 178 176 174 172 174 180 183 187 192 196 199 198 195 196 199 199 196 196 199 201 201 200 196 193 192 194 189 179 185 192 199 205 203 187 183 191 193 207 226 232 247 256 250 247 267 272 270 266 261 258 257 258 257 248 223 208 203 202 201
328 326 324 321 321 326 324 321 324 323 328 335 339 357 359 332 312 282 269 257 252 238 215 206 194 184 179 178 177 175 173 175 175 175 180 183 185 189 196 197 195 195 194 195 198 196 197 203 206 206 202 196 194 194 196 198 195 191 193 197 206 208 194 188 205 210 225 246 256 268 269 266 270 282 284 280 275 269 257 249 253 259 257 245 218 206 205 203
333 330 326 324 327 331 328 328 332 334 348 2 15 29 25 358 348 302 279 245 243 240 206 194 183 174 175 177 176 174 172 175 175 177 181 184 187 189 196 197 191 192 194 194 197 196 197 205 207 207 203 195 194 197 198 202 206 205 202 202 207 208 198 194 213 218 221 241 254 267 278 281 281 285 288 286 280 271 257 237 233 243 250 254 242 219 210 207
340 338 335 334 337 340 339 340 346 357 18 40 49 48 45 24 17 360 338 178 211 234 192 183 173 166 170 176 176 174 175 176 173 175 179 182 189 191 194 198 191 190 194 195 198 199 201 208 207 205 204 196 193 198 201 205 211 214 212 209 210 209 203 197 206 218 231 248 254 267 283 287 287 290 287 277 269 264 256 244 235 232 236 246 246 230 216 210
347 347 345 341 344 350 350 352 2 25 57 70 64 61 62 37 1 6 27 87 96 142 168 170 167 165 168 173 174 175 176 179 176 177 179 181 192 195 191 195 194 194 196 194 197 201 204 211 210 206 203 198 196 199 202 205 213 220 219 214 212 212 211 211 212 227 249 244 235 258 273 275 313 338 320 277 260 259 255 251 250 242 233 238 241 233 219 209
352 351 348 345 351 0 2 4 15 42 73 79 69 63 67 34 358 53 67 79 83 96 153 162 165 167 168 168 172 173 172 178 181 178 179 181 191 197 195 196 196 197 199 195 196 201 202 203 207 208 205 201 202 203 204 206 211 223 224 219 219 220 218 219 221 234 244 217 198 233 245 258 323 354 357 279 244 244 246 247 248 246 239 238 240 237 226 210
353 351 352 357 6 14 18 23 30 49 68 68 53 48 63 60 76 104 99 90 76 73 140 158 164 169 167 166 172 173 171 175 176 174 176 181 188 196 198 200 199 198 199 196 197 207 204 194 189 201 207 208 208 209 209 207 211 222 224 221 226 227 222 220 224 234 242 243 253 249 236 252 315 346 339 299 261 248 250 252 249 246 242 236 234 235 235 223
356 358 4 15 22 27 35 39 42 56 63 59 50 56 78 89 102 113 119 91 59 75 136 153 165 170 166 165 168 172 174 172 170 171 174 178 184 191 195 203 203 198 201 198 195 208 209 201 194 191 198 209 214 216 215 212 216 223 225 224 229 229 224 223 228 238 249 267 260 233 215 212 356 347 320 287 269 261 255 257 253 250 245 238 233 231 233 235
4 8 17 25 31 40 47 44 47 67 87 96 100 100 102 106 107 99 87 74 56 84 132 147 162 167 166 162 156 160 169 170 171 170 170 173 179 185 189 197 199 194 202 203 195 203 216 213 212 206 203 209 215 222 223 220 220 224 228 221 213 214 212 213 221 231 244 258 240 215 202 199 50 1 327 298 278 262 248 250 254 256 253 244 238 235 235 237
14 16 20 23 28 37 41 42 56 79 95 105 109 111 109 113 105 73 71 64 50 83 121 137 154 161 164 158 149 156 165 168 168 164 165 172 177 184 185 185 191 190 195 197 188 187 203 208 214 219 221 221 223 228 228 224 220 223 226 212 200 194 189 198 213 219 219 232 229 214 199 201 122 18 360 351 330 306 288 269 260 263 261 251 241 237 237 236
22 21 20 19 23 26 29 37 57 88 103 106 106 106 103 99 83 60 80 59 47 85 114 127 148 157 163 156 147 155 162 163 164 163 165 171 175 182 180 179 181 179 180 181 177 171 176 185 194 210 219 222 226 227 223 218 213 214 213 200 196 194 188 200 214 213 207 202 203 198 195 191 132 33 11 1 334 317 311 293 272 260 256 254 248 242 241 239
27 25 21 20 20 21 27 34 63 100 105 99 97 99 96 88 65 44 55 62 48 86 113 126 143 153 163 160 146 149 158 157 158 166 169 166 173 180 178 178 177 174 174 174 173 172 176 187 193 198 203 207 215 216 211 207 201 199 195 186 182 180 183 197 206 205 204 183 169 178 177 147 98 61 32 15 345 329 326 316 292 266 249 248 252 251 249 247
30 27 25 24 23 27 34 42 74 95 91 82 88 99 95 86 56 31 39 65 69 89 109 124 135 142 162 159 140 142 154 150 151 165 169 165 175 181 182 185 181 180 180 173 171 170 170 183 200 200 196 198 203 202 199 197 194 195 194 188 184 172 176 187 177 183 197 177 153 163 157 130 115 77 48 38 7 346 334 327 314 286 259 242 243 244 245 247
31 28 28 27 28 35 40 50 68 67 67 71 75 103 93 76 46 39 53 75 90 99 111 122 129 138 158 151 136 143 147 138 146 161 165 166 158 164 178 185 186 191 188 177 175 175 171 164 185 197 200 201 201 200 200 196 194 200 200 198 199 193 185 184 176 179 175 149 140 156 157 144 137 92 52 51 26 360 337 326 319 309 278 230 226 231 239 245
32 30 30 28 30 36 38 49 48 35 53 48 13 103 90 62 34 41 51 77 97 104 115 130 143 144 144 140 138 149 143 129 140 151 152 148 126 125 142 162 184 195 191 183 181 181 177 157 163 186 201 205 200 200 201 192 188 199 200 201 205 202 187 166 176 182 168 145 138 141 132 136 131 92 57 58 41 23 335 317 307 308 297 223 217 224 235 244
30 30 30 25 28 30 30 35 29 28 40 13 347 93 84 62 43 39 43 69 92 110 121 135 147 138 128 130 136 149 150 143 146 140 128 120 103 99 107 121 161 185 188 186 181 174 165 150 159 173 187 198 197 198 200 192 187 190 191 197 204 202 196 165 165 178 180 171 147 126 127 140 139 95 48 55 53 61 198 261 276 291 284 239 224 223 230 237
22 24 25 21 24 22 16 17 18 25 14 344 40 92 79 64 52 38 41 52 68 118 132 131 135 130 124 128 134 144 153 150 148 140 125 113 94 89 95 101 120 149 173 179 176 170 158 140 151 160 158 172 183 194 199 198 196 189 188 196 199 200 207 201 165 166 188 186 135 123 127 138 161 156 32 55 66 299 262 243 227 224 236 243 235 230 232 233
19 12 3 6 21 18 4 2 12 18 0 350 97 91 75 66 55 40 45 43 46 90 145 140 128 134 139 139 139 146 154 153 151 146 130 114 96 85 91 99 101 111 146 159 156 167 162 139 141 156 153 150 159 171 178 187 195 196 197 196 191 189 197 198 184 171 187 182 121 123 118 108 116 50 19 20 39 342 312 318 281 191 188 215 229 234 239 236
10 357 338 349 16 13 1 360 6 7 1 73 102 88 74 68 60 53 57 49 47 55 169 160 135 138 147 147 147 152 159 161 158 150 133 117 107 95 92 99 98 100 121 129 128 158 166 151 136 153 159 156 154 156 151 163 182 192 196 191 189 193 191 191 196 192 186 174 141 149 142 117 91 60 21 359 40 32 343 328 307 258 221 216 212 224 237 239
354 341 335 352 5 8 6 1 350 351 33 88 92 86 82 72 63 60 60 61 66 75 121 145 144 146 147 148 152 156 156 154 157 152 134 125 121 112 103 103 106 110 112 109 109 140 162 156 135 147 165 163 142 129 124 135 164 174 178 181 185 190 186 187 199 201 191 166 155 164 151 134 103 79 58 357 54 41 5 352 339 316 286 259 239 227 228 234
358 339 339 353 356 7 9 3 3 47 73 83 80 82 89 77 69 67 64 66 79 94 101 115 141 146 144 145 151 159 151 143 149 145 130 129 129 120 112 108 107 109 107 105 108 120 139 142 134 131 142 139 121 113 114 116 144 166 171 177 182 179 175 182 197 198 188 163 170 173 134 129 125 106 119 113 77 56 24 8 356 339 312 290 274 255 243 238
13 352 350 2 7 11 13 34 69 74 81 82 65 61 81 85 85 84 74 69 77 92 100 108 123 129 131 134 141 154 148 136 139 139 132 136 139 133 125 116 108 107 106 105 106 109 113 125 129 120 121 124 117 115 115 110 123 152 166 175 181 178 178 186 197 183 170 149 163 163 121 125 139 133 126 104 92 81 48 24 11 359 334 316 304 282 267 256
23 18 10 11 16 16 21 54 74 79 82 73 50 42 59 92 109 105 87 79 81 86 101 114 115 117 122 120 124 141 139 126 128 137 138 140 140 136 133 125 111 108 107 98 97 106 106 118 126 118 114 118 117 118 117 111 119 132 154 171 176 177 182 192 193 176 162 137 152 155 127 142 151 146 135 107 99 99 78 50 30 16 354 337 327 307 291 279
21 22 19 20 27 31 41 61 69 72 72 65 50 42 57 94 123 112 97 103 106 87 96 114 114 120 123 112 112 135 134 122 129 138 142 145 142 132 129 127 110 99 99 89 91 107 111 125 134 127 117 122 131 137 136 128 131 131 139 156 165 172 178 184 179 172 161 151 163 157 122 155 162 154 140 116 108 109 101 83 50 28 11 355 340 326 315 303
17 18 27 36 40 43 55 59 58 61 65 64 60 60 71 97 114 108 98 106 114 97 88 110 109 114 119 110 106 122 125 128 142 151 152 151 146 133 127 131 120 102 92 87 85 100 113 126 137 144 156 163 171 184 179 169 156 139 130 131 142 162 169 169 168 166 154 154 164 153 136 153 161 156 147 132 119 110 103 98 80 47 28 16 2 351 344 333
19 18 26 34 36 39 46 52 51 51 57 60 63 67 77 94 108 110 108 113 118 109 102 111 105 91 93 97 94 98 108 120 140 159 161 154 148 138 132 137 130 92 39 63 61 82 107 120 136 173 216 215 204 192 188 185 174 152 136 129 132 148 157 161 162 159 153 149 144 146 159 161 158 157 158 154 138 116 103 103 101 90 59 38 28 20 12 360
20 23 30 33 33 36 42 50 51 51 54 56 59 62 73 97 111 116 125 130 129 133 133 123 117 83 83 92 90 96 110 116 125 146 155 156 154 148 149 171 210 283 301 317 324 331 327 284 193 193 214 221 213 201 197 198 194 189 178 162 155 149 149 147 134 138 149 146 126 137 160 164 160 160 166 168 161 140 112 107 108 107 102 80 57 43 26 4
17 25 34 41 41 43 51 55 57 56 53 51 56 59 67 89 104 112 123 132 143 157 159 140 141 134 110 108 98 111 122 125 134 149 158 164 171 180 197 213 236 258 274 289 292 284 269 242 211 197 198 203 206 207 208 211 214 218 221 222 227 223 183 157 135 137 141 138 138 144 154 167 168 168 171 174 175 163 140 125 113 101 93 97 97 80 43 11
18 25 32 43 43 43 49 52 53 55 52 50 56 60 64 78 92 97 99 113 127 130 135 139 129 121 124 113 107 133 139 141 153 166 172 176 200 235 222 212 225 243 255 257 247 241 225 199 193 188 186 191 199 206 213 217 221 226 231 233 235 230 210 196 179 163 149 143 153 155 160 175 178 179 179 176 178 177 171 164 130 103 90 100 117 129 146 342
18 23 27 38 40 38 43 48 49 52 53 57 64 68 71 79 85 84 82 91 101 97 92 102 102 96 99 109 125 139 140 147 160 164 174 192 206 230 229 223 228 227 228 219 218 224 213 195 192 184 179 189 197 202 215 219 213 217 227 230 229 227 215 204 203 194 174 170 180 188 198 198 192 193 195 192 192 190 188 182 161 148 138 119 113 127 147 182
20 21 24 31 35 35 40 46 47 48 52 63 71 74 78 85 87 85 82 83 86 84 84 91 96 100 108 117 126 125 122 132 149 152 163 176 179 197 210 211 220 218 218 219 218 221 211 196 192 183 176 189 198 204 221 230 224 223 227 226 222 218 214 204 203 201 190 189 194 201 216 222 214 211 219 225 222 214 207 197 187 183 183 176 157 150 147 155
23 22 23 26 28 31 37 44 50 51 56 66 74 77 84 93 93 87 84 85 86 88 93 97 98 106 119 124 121 114 109 116 133 142 147 143 145 159 162 157 166 173 188 207 209 204 193 186 187 183 174 182 192 196 208 218 215 215 220 221 215 205 201 196 193 195 194 191 186 192 217 230 227 224 230 233 234 236 231 219 214 213 208 205 206 203 206 223